[[{"header":{"parameterUnit":"m.s-1","parameterCategory":1,"la1":30.2991,"la2":30.254,"lo1":-89.0895,"lo2":-89.0444,"dy":0.0017,"dx":0.0017,"nx":28,"ny":28,"refTime":"2024-12-02T09:00:00:Z","depth":0,"parameterNumber":2,"parameterNumberName":"U-component_of_WINDS"},"data":[0,0,0,0,0,0,0,0,0,0,0,0,0,0,0,0,0,0,0,0,0,0,0,0,0,0,0,0,0,0,0,0,0,0,0,0,0,0,0,0,0,0,0,0,0,0,0,0,0,0,0,0,0,0,0,0,0,0,-4.1811,-4.1811,0,-4.1872,-4.1873,-4.1874,-4.1787,-4.1784,-4.1781,-4.1778,-4.1839,-4.1843,-4.1848,0,0,0,0,0,0,0,0,0,0,0,0,0,-4.1616,-4.162,-4.1811,-4.1811,-4.1812,-4.1872,-4.1873,-4.1874,-4.1787,-4.1784,-4.178,-4.1776,-4.1838,-4.1843,-4.1848,0,0,0,0,0,0,0,0,0,0,0,0,0,-4.1691,-4.1622,-4.1811,-4.1776,-4.1774,-4.1872,-4.1873,-4.1874,-4.1788,-4.1783,-4.1779,-4.1775,-4.1836,-4.1842,-4.1849,-4.1983,0,0,-4.187,-4.1873,0,0,0,0,0,0,0,0,-4.1687,-4.1699,-4.1781,-4.1779,-4.1776,-4.1817,-4.1827,-4.191,-4.1789,-4.1783,-4.1778,-4.1772,-4.1835,-4.1842,-4.1863,-4.1986,-4.1988,-4.187,-4.1874,-4.1877,-4.1879,0,0,0,0,0,0,0,-4.1682,-4.1696,-4.1835,-4.1782,-4.1779,-4.1757,-4.1763,-4.1842,-4.1834,-4.1783,-4.1777,-4.1785,-4.1833,-4.1857,-4.1864,-4.1989,-4.187,-4.1876,-4.188,-4.1883,-4.2222,-4.2227,0,0,0,0,0,0,-4.1681,-4.1692,-4.1833,-4.1837,-4.172,-4.1764,-4.1771,-4.1809,-4.1833,-4.1832,-4.1789,-4.1781,-4.1848,-4.1856,-4.1866,-4.2022,-4.1877,-4.1883,-4.1887,-4.2217,-4.2223,-4.2229,0,0,0,0,0,0,-4.1678,-4.1695,-4.183,-4.1763,-4.1778,-4.1773,-4.1816,-4.1812,-4.1836,-4.1838,-4.1836,-4.1815,-4.1845,-4.1857,-4.1954,-4.2023,-4.1886,-4.1893,-4.2212,-4.2219,-4.2226,-4.2337,0,0,0,0,0,0,-4.1672,-4.1694,-4.1745,-4.1765,-4.1782,-4.1918,-4.182,-4.1817,-4.1848,-4.1838,-4.1862,-4.1861,-4.1842,-4.1944,-4.1961,-4.203,-4.1898,-4.2205,-4.2215,-4.2224,-4.2327,-4.2347,-4.2365,0,0,0,0,0,-4.1666,-4.1774,-4.1748,-4.1766,-4.1846,-4.1923,-4.1933,-4.1909,-4.1854,-4.1905,-4.1906,-4.186,-4.2014,-4.1955,-4.1973,-4.2045,-4.2201,-4.2212,-4.2223,-4.2319,-4.2343,-4.2364,0,0,0,0,0,0,-4.1763,-4.1776,-4.1747,-4.1866,-4.1894,-4.1908,-4.1971,-4.1936,-4.198,-4.1968,-4.1937,-4.1943,-4.2047,-4.2056,-4.1991,-4.2175,-4.2098,-4.2113,-4.2165,-4.2188,-4.2207,-4.2201,-4.1903,0,0,0,0,0,-4.1798,-4.1859,-4.1868,-4.1971,-4.1987,-4.1977,-4.2009,-4.1989,-4.2016,-4.2027,-4.2035,-4.2063,-4.2117,-4.2154,-4.2204,-4.2329,-4.2332,-4.2387,-4.2406,-4.2422,-4.2434,-4.2499,-4.2523,-4.2266,-4.2265,-4.2265,0,0,-4.1871,-4.1886,-4.1927,-4.1991,-4.201,-4.2073,-4.1987,-4.2058,-4.2104,-4.2038,-4.2129,-4.2137,-4.2166,-4.2277,-4.2327,-4.2288,-4.2506,-4.2436,-4.2448,-4.2452,-4.2513,-4.2537,-4.2559,-4.2273,-4.2272,-4.2271,0,0,-4.2036,-4.2055,-4.2141,-4.2163,-4.2193,-4.2186,-4.2207,-4.2227,-4.2229,-4.2321,-4.2272,-4.2326,-4.2421,-4.2443,-4.2467,-4.264,-4.2599,-4.2658,-4.2755,-4.2818,-4.2838,-4.2856,-4.2915,-4.2937,-4.2671,-4.2671,-4.2672,0,-4.2122,-4.2216,-4.2191,-4.2264,-4.2293,-4.2237,-4.2324,-4.2346,-4.2391,-4.2412,-4.2369,-4.2485,-4.2501,-4.2615,-4.2658,-4.268,-4.2701,-4.2653,-4.2838,-4.2855,-4.2871,-4.2927,-4.295,-4.2678,-4.2677,-4.2677,-4.2676,0,-4.232,-4.2386,-4.2452,-4.2497,-4.2534,-4.2614,-4.26,-4.264,-4.2617,-4.2614,-4.2707,-4.2725,-4.2776,-4.2803,-4.2781,-4.2914,-4.2889,-4.2843,-4.2764,-4.2903,-4.2955,-4.2976,-4.2688,-4.2685,-4.2683,-4.2682,0,0,-4.2545,-4.2575,-4.26,-4.2619,-4.2648,-4.2698,-4.2776,-4.2827,-4.2861,-4.2895,-4.2957,-4.3039,-4.2995,-4.3022,-4.3003,-4.3059,-4.3192,-4.3005,-4.3005,-4.3036,-4.3337,-4.3369,-4.3395,-4.3166,-4.317,-4.3173,-4.3333,0,-4.2707,-4.2841,-4.282,-4.2949,-4.3008,-4.2956,-4.3023,-4.3048,-4.3048,-4.3097,-4.3097,-4.3154,-4.3094,-4.311,-4.3163,-4.3164,-4.3251,-4.3153,-4.3222,-4.3225,-4.3213,-4.3422,-4.3457,-4.3607,-4.3354,-4.3357,-4.336,0,-4.2914,-4.2954,-4.3089,-4.3108,-4.3132,-4.3193,-4.3237,-4.3286,-4.3313,-4.3309,-4.3339,-4.3309,-4.3385,-4.3308,-4.3411,-4.3345,-4.3372,-4.3377,-4.3382,-4.3385,-4.3298,-4.3428,-4.3654,-4.3676,-4.3392,-4.339,-4.3387,0,-4.3061,-4.315,-4.3241,-4.3259,-4.3285,-4.3328,-4.3341,-4.3363,-4.3395,-4.3434,-4.3454,-4.3502,-4.3527,-4.3564,-4.3547,-4.3493,-4.3653,-4.3575,-4.365,-4.365,-4.3683,-4.368,-4.3914,-4.3707,-4.3706,-4.3706,-4.3705,0,-4.3242,-4.3326,-4.3307,-4.3363,-4.3455,-4.343,-4.3522,-4.3528,-4.3548,-4.3604,-4.3563,-4.3615,-4.3591,-4.3642,-4.363,-4.3716,-4.3729,-4.3726,-4.3721,-4.3728,-4.3728,-4.3743,-4.3731,-4.3712,-4.371,-4.3709,-4.3708,0,-4.3421,-4.3412,-4.3508,-4.3524,-4.353,-4.3597,-4.361,-4.3662,-4.3659,-4.3729,-4.3744,-4.374,-4.3797,-4.3785,-4.3849,-4.3841,-4.3948,-4.3931,-4.3938,-4.3933,-4.4007,-4.3999,-4.4256,-4.4288,-4.4063,-4.4065,-4.4067,0,-4.3535,-4.3598,-4.3621,-4.3655,-4.3671,-4.3727,-4.3759,-4.3738,-4.3772,-4.3808,-4.3855,-4.3909,-4.3951,-4.4046,-4.4047,-4.4095,-4.4078,-4.4165,-4.4085,-4.4089,-4.4075,-4.4071,-4.4076,-4.418,-4.4182,-4.4184,-4.4186,0,-4.3739,-4.3731,-4.3779,-4.3825,-4.3864,-4.39,-4.3931,-4.3962,-4.3943,-4.3984,-4.4042,-4.4075,-4.414,-4.4193,-4.4238,-4.425,-4.4214,-4.4212,-4.4231,-4.4237,-4.4237,-4.4235,-4.3978,-4.4205,-4.4203,-4.4202,-4.4201,-4.42,-4.3886,-4.3939,-4.3963,-4.4017,-4.4039,-4.4069,-4.4118,-4.4121,-4.417,-4.422,-4.4205,-4.4271,-4.4296,-4.4352,-4.437,-4.442,-4.4388,-4.4416,-4.4423,-4.443,-4.4437,-4.4232,-4.4429,-4.4428,-4.4428,-4.4427,-4.4427,0,-4.4085,-4.4098,-4.4148,-4.4193,-4.4235,-4.42,-4.4233,-4.427,-4.4329,-4.4355,-4.4397,-4.4464,-4.4515,-4.4522,-4.457,-4.461,-4.4595,-4.4623,-4.4618,-4.4621,-4.4465,-4.4442,-4.4634,-4.4634,-4.4634,-4.4634,-4.4634,-4.4634,-4.4193,-4.4279,-4.4275,-4.4371,-4.4383,-4.4447,-4.4469,-4.4496,-4.4516,-4.4592,-4.4635,-4.4639,-4.4657,-4.4707,-4.4752,-4.4753,-4.4771,-4.4805,-4.4799,-4.4653,-4.4632,-4.4612,-4.459,-4.481,-4.4811,-4.495,-4.4952,-4.4953]},{"header":{"parameterUnit":"m.s-1","parameterCategory":1,"la1":30.2991,"la2":30.254,"lo1":-89.0895,"lo2":-89.0444,"dy":0.0017,"dx":0.0017,"nx":28,"ny":28,"refTime":"2024-12-02T09:00:00:Z","depth":0,"parameterNumber":3,"parameterNumberName":"V-component_of_WINDS"},"data":[0,0,0,0,0,0,0,0,0,0,0,0,0,0,0,0,0,0,0,0,0,0,0,0,0,0,0,0,0,0,0,0,0,0,0,0,0,0,0,0,0,0,0,0,0,0,0,0,0,0,0,0,0,0,0,0,0,0,0.1258,0.1258,0,0.1263,0.1263,0.1263,0.1228,0.1227,0.1226,0.1225,0.1229,0.123,0.1231,0,0,0,0,0,0,0,0,0,0,0,0,0,0.1218,0.1219,0.1258,0.1258,0.1259,0.1263,0.1263,0.1263,0.1228,0.1227,0.1226,0.1224,0.1229,0.123,0.1232,0,0,0,0,0,0,0,0,0,0,0,0,0,0.1231,0.1219,0.1258,0.1241,0.124,0.1263,0.1263,0.1263,0.1228,0.1227,0.1225,0.1224,0.1229,0.123,0.1232,0.1271,0,0,0.1236,0.1237,0,0,0,0,0,0,0,0,0.123,0.1232,0.1244,0.1243,0.1241,0.1243,0.1251,0.1266,0.1229,0.1233,0.1225,0.1223,0.1235,0.1236,0.124,0.1272,0.1272,0.1237,0.1238,0.1238,0.1239,0,0,0,0,0,0,0,0.1229,0.1232,0.126,0.1244,0.1242,0.1234,0.1234,0.1254,0.1242,0.1232,0.123,0.1231,0.1234,0.1239,0.124,0.1272,0.1237,0.1238,0.1239,0.124,0.1337,0.1339,0,0,0,0,0,0,0.1231,0.1231,0.126,0.126,0.1232,0.1236,0.1236,0.1244,0.1242,0.124,0.1232,0.1229,0.1237,0.1238,0.124,0.1287,0.1238,0.124,0.1241,0.1335,0.1337,0.1339,0,0,0,0,0,0,0.123,0.1234,0.126,0.1245,0.1248,0.1238,0.1248,0.1245,0.125,0.1242,0.124,0.1239,0.1236,0.1238,0.1264,0.1287,0.124,0.1242,0.1333,0.1336,0.1338,0.1381,0,0,0,0,0,0,0.1229,0.1233,0.1248,0.1246,0.1249,0.1284,0.1249,0.1246,0.1253,0.1249,0.1248,0.1246,0.1235,0.1262,0.1266,0.1288,0.1243,0.1331,0.1335,0.1337,0.1377,0.1385,0.1391,0,0,0,0,0,0.1228,0.126,0.1249,0.1253,0.1267,0.1285,0.1287,0.1273,0.1255,0.127,0.1265,0.1246,0.1284,0.1265,0.1269,0.1292,0.133,0.1334,0.1337,0.1375,0.1383,0.1391,0,0,0,0,0,0,0.1265,0.1259,0.1247,0.128,0.1283,0.1279,0.1298,0.1283,0.1292,0.1288,0.127,0.1271,0.13,0.1298,0.1278,0.1331,0.1304,0.1308,0.1331,0.1339,0.1345,0.1345,0.1244,0,0,0,0,0,0.1277,0.1292,0.1286,0.1315,0.1318,0.1308,0.1315,0.1304,0.1307,0.1308,0.1305,0.1309,0.1321,0.133,0.1341,0.1377,0.1377,0.1395,0.1402,0.1407,0.1411,0.1431,0.1439,0.1351,0.1351,0.1351,0,0,0.1302,0.13,0.1311,0.1323,0.1324,0.1341,0.1309,0.1327,0.1339,0.1311,0.1336,0.1334,0.1337,0.1368,0.1382,0.1368,0.1436,0.1412,0.1416,0.1418,0.1436,0.1444,0.1452,0.1354,0.1353,0.1353,0,0,0.1355,0.1356,0.1381,0.1383,0.1386,0.1379,0.1385,0.1384,0.1381,0.1406,0.1386,0.14,0.1422,0.1425,0.1429,0.1485,0.1469,0.1489,0.1524,0.1543,0.155,0.1556,0.1577,0.1584,0.1494,0.1494,0.1494,0,0.1386,0.1409,0.1395,0.1415,0.1421,0.1397,0.1422,0.1425,0.1432,0.1436,0.1421,0.1449,0.1449,0.1481,0.1495,0.1499,0.1506,0.1489,0.155,0.1556,0.1562,0.1581,0.1589,0.1496,0.1496,0.1496,0.1495,0,0.1447,0.1464,0.1483,0.1491,0.1499,0.1522,0.1511,0.1521,0.151,0.1505,0.1531,0.1531,0.1542,0.1548,0.1538,0.158,0.1571,0.1553,0.1525,0.1573,0.1591,0.1598,0.15,0.1499,0.1498,0.1498,0,0,0.1523,0.1523,0.1531,0.1534,0.1536,0.1549,0.1571,0.1582,0.1591,0.1597,0.1615,0.1635,0.1619,0.1624,0.1613,0.163,0.1676,0.161,0.161,0.1623,0.1722,0.1736,0.1744,0.1665,0.1666,0.1667,0.1722,0,0.1576,0.1613,0.1601,0.1639,0.1655,0.1633,0.1652,0.1655,0.1652,0.1664,0.166,0.1674,0.1652,0.1655,0.1671,0.1667,0.1695,0.1663,0.1681,0.1682,0.1681,0.1754,0.1768,0.1819,0.1729,0.173,0.1731,0,0.1642,0.1651,0.169,0.1691,0.1697,0.1714,0.1724,0.1737,0.174,0.1736,0.1743,0.1729,0.1751,0.1723,0.1753,0.1731,0.1738,0.1737,0.1739,0.174,0.1709,0.1757,0.1835,0.1843,0.1742,0.1741,0.174,0,0.1694,0.1716,0.1743,0.1746,0.1747,0.176,0.1761,0.1763,0.1771,0.178,0.1785,0.1796,0.1802,0.1811,0.18,0.1781,0.1832,0.1803,0.1829,0.1829,0.184,0.184,0.1921,0.1845,0.1845,0.1845,0.1845,0,0.1754,0.1779,0.1766,0.1782,0.181,0.1797,0.1824,0.1823,0.1825,0.1841,0.1823,0.1838,0.1824,0.1838,0.183,0.1856,0.1859,0.1856,0.1854,0.1858,0.1858,0.1862,0.1858,0.1847,0.1847,0.1846,0.1846,0,0.1817,0.1809,0.1837,0.1836,0.1836,0.1857,0.1856,0.1871,0.1866,0.1887,0.1891,0.1883,0.1899,0.189,0.1905,0.19,0.1934,0.1927,0.1933,0.1931,0.1957,0.1955,0.2044,0.2055,0.1972,0.1973,0.1974,0,0.1855,0.1874,0.1876,0.1885,0.1888,0.1903,0.1911,0.1899,0.1908,0.1915,0.1929,0.1944,0.1954,0.198,0.1976,0.1988,0.1981,0.2011,0.1983,0.1986,0.1982,0.1981,0.1983,0.2017,0.2018,0.2019,0.202,0,0.1925,0.1921,0.1933,0.1945,0.1955,0.1964,0.1971,0.198,0.1968,0.1979,0.1995,0.2003,0.202,0.2034,0.2045,0.2046,0.2031,0.2029,0.2035,0.204,0.2042,0.2041,0.1949,0.2027,0.2026,0.2025,0.2025,0.2025,0.1977,0.1993,0.1997,0.2012,0.2016,0.2023,0.2038,0.2035,0.2048,0.2061,0.2053,0.2072,0.2076,0.2089,0.2092,0.2107,0.2094,0.2104,0.2106,0.2109,0.2113,0.2041,0.2109,0.2108,0.2108,0.2108,0.2108,0,0.2046,0.2047,0.2061,0.2072,0.2084,0.207,0.2077,0.2088,0.2105,0.211,0.2121,0.214,0.2154,0.2152,0.2164,0.2177,0.217,0.2181,0.2179,0.218,0.2123,0.2116,0.2186,0.2186,0.2186,0.2186,0.2186,0.2186,0.2083,0.211,0.2106,0.2135,0.2136,0.2155,0.216,0.2167,0.2171,0.2193,0.2205,0.2203,0.2206,0.2219,0.2231,0.223,0.2236,0.2249,0.2245,0.2192,0.2184,0.2177,0.217,0.225,0.225,0.2301,0.2301,0.2302]}]]